User: anonymous   Login
Location: Unspecified
(0.0000°N, 0.0000°E)
Time: 13:42:42
(UTC+00:00)
Language:

M-CUBED/EXP-1 PRIME - Orbit

View from above orbital plane
View from above orbital plane
View from above satellite
View from above satellite

Ground track
Ground track

The orbit data is extracted from the following two-line orbital elements,

1 37855U 11061F   19342.91395342  .00001260  00000-0  70378-4 0  9990
2 37855 101.7249 327.5335 0172217 283.2258  74.9794 15.05862470442842
Epoch (UTC): 08 December 2019 21:56:05
Eccentricity: 0.0172217
inclination: 101.7249°
perigee height: 429 km
apogee height: 668 km
right ascension of ascending node: 327.5335°
argument of perigee: 283.2258°
revolutions per day: 15.05862470
mean anomaly at epoch: 74.9794°
orbit number at epoch: 44284

The dashed part of the orbit path shows where the satellite is in the earth's shadow,  

DLR